Terug naar catalogus

BREEZE-M DEB

ActiefHEO
NORAD 38590·DEBRIS·🇷🇺 Russia

Gelanceerd Mar 14, 2008 vanaf Baikonur Cosmodrome

Loading…

Volgende Passages (komende 24 uur)

TLE

VersSource: Space-Track

Epoch: Sep 13, 2026, 13:44 UTC

1 38590U 08011AM  26256.57287269 -.00000041  00000-0  00000-0 0  9998
2 38590  48.8733 271.4046 6272257 352.5552   1.3575  2.88417442175466

Volg BREEZE-M DEB in realtime met AllMySat

Download on the App Store